WetterOnline ( https://www.wetteronline.de )

Wetter aktuell Bamberg

Aktuelles Wetter: Bamberg (243m)

6-stündlich | Neueste Meldungen
Ortszeit Temperatur Wetter
Mo, 03.10. 20:00 10.0° C bewölkt
Mo, 03.10. 14:00 13.8° C bewölkt
Mo, 03.10. 8:00 6.3° C bedeckt
Mo, 03.10. 2:00 5.4° C Nebel
So, 02.10. 20:00 10.8° C bewölkt
So, 02.10. 14:00 13.3° C leichter Regen
So, 02.10. 8:00 11.9° C bewölkt
So, 02.10. 2:00 7.6° C Nebel
Ortszeit Temperatur Wetter
Di, 04.10. 0:00 5.3° C Nebel
Mo, 03.10. 23:40 5.4° C Dunst
Mo, 03.10. 23:30 5.6° C Nebel
Mo, 03.10. 23:20 5.6° C Nebel
Mo, 03.10. 23:10 5.9° C fast wolkenlos
Mo, 03.10. 23:00 6.1° C Nebel
Mo, 03.10. 22:50 6.1° C Dunst
Mo, 03.10. 22:30 6.8° C Nebel
Mo, 03.10. 22:00 7.9° C wolkig
Mo, 03.10. 21:30 8.8° C wolkig
Mo, 03.10. 21:00 9.7° C bewölkt
Ortszeit Relative Feuchte Sichtweite
Mo, 03.10. 20:00 95% 30 km
Mo, 03.10. 14:00 68% 50 km
Mo, 03.10. 8:00 99% 8 km
Mo, 03.10. 2:00 99% 0.9 km
So, 02.10. 20:00 97% 20 km
So, 02.10. 14:00 89% 21 km
So, 02.10. 8:00 95% 30 km
So, 02.10. 2:00 99% 0.3 km
Ortszeit Relative Feuchte Sichtweite
Di, 04.10. 0:00 99% 3.2 km
Mo, 03.10. 23:40 98% -
Mo, 03.10. 23:30 99% 0.6 km
Mo, 03.10. 23:20 99% -
Mo, 03.10. 23:10 98% -
Mo, 03.10. 23:00 98% 4.4 km
Mo, 03.10. 22:50 98% -
Mo, 03.10. 22:30 97% 2.8 km
Mo, 03.10. 22:00 97% 4.0 km
Mo, 03.10. 21:30 97% 24 km
Mo, 03.10. 21:00 96% 30 km
Ortszeit Niederschlagsmenge Niederschlagsart
Mo, 03.10. 20:00 0.0 l/m2 in 12 Std. -
Mo, 03.10. 14:00 0.0 l/m2 in 6 Std. -
Mo, 03.10. 8:00 0.1 l/m2 in 12 Std. -
Mo, 03.10. 2:00 0.0 l/m2 in 6 Std. -
So, 02.10. 20:00 4 l/m2 in 12 Std. Regen
So, 02.10. 14:00 3 l/m2 in 6 Std. Regen
So, 02.10. 8:00 11 l/m2 in 12 Std. Regen
So, 02.10. 2:00 11 l/m2 in 6 Std. Regen
Ortszeit Niederschlagsmenge Niederschlagsart
Di, 04.10. 0:00 0.0 l/m2 in 1 Std. -
Mo, 03.10. 23:40 keine Meldung -
Mo, 03.10. 23:30 0.0 l/m2 in 1 Std. -
Mo, 03.10. 23:20 keine Meldung -
Mo, 03.10. 23:10 keine Meldung -
Mo, 03.10. 23:00 0.0 l/m2 in 1 Std. -
Mo, 03.10. 22:50 keine Meldung -
Mo, 03.10. 22:30 0.0 l/m2 in 1 Std. -
Mo, 03.10. 22:00 0.0 l/m2 in 1 Std. -
Mo, 03.10. 21:30 0.0 l/m2 in 1 Std. -
Mo, 03.10. 21:00 0.0 l/m2 in 1 Std. -
Ortszeit Stärke Spitze Richtung
km/h Bft. km/h Grad Sektor
Mo, 03.10. 20:00 4 1 22 140° SO
Mo, 03.10. 14:00 7 2 22 300° NW
Mo, 03.10. 8:00 2 1 6 190° S
Mo, 03.10. 2:00 0 0 7 - -
So, 02.10. 20:00 2 1 19 120° SO
So, 02.10. 14:00 7 2 18 220° SW
So, 02.10. 8:00 7 2 14 210° SW
So, 02.10. 2:00 0 0 22 - -
Ortszeit Stärke Spitze Richtung
km/h Bft. km/h Grad Sektor
Di, 04.10. 0:00 2 1 4 110° O
Mo, 03.10. 23:40 2 1 - 120° SO
Mo, 03.10. 23:30 0 0 4 - -
Mo, 03.10. 23:20 0 0 - 160° S
Mo, 03.10. 23:10 0 0 - 180° S
Mo, 03.10. 23:00 4 1 4 110° O
Mo, 03.10. 22:50 4 1 - 110° O
Mo, 03.10. 22:30 4 1 4 130° SO
Mo, 03.10. 22:00 2 1 4 110° O
Mo, 03.10. 21:30 0 0 4 - -
Mo, 03.10. 21:00 2 1 6 140° SO
Ortszeit Untergrenze Bedeckung Gattung
total tief tief mittel hoch
Mo, 03.10. 20:00 1500 m 7/8 7/8 - - -
Mo, 03.10. 14:00 1170 m 7/8 7/8 - - -
Mo, 03.10. 8:00 1200 m 8/8 8/8 - - -
Mo, 03.10. 2:00 <30 m 8/8 0/8 - - -
So, 02.10. 20:00 600 m 8/8 5/8 - - -
So, 02.10. 14:00 570 m 8/8 8/8 - - -
So, 02.10. 8:00 600 m 8/8 6/8 - - -
So, 02.10. 2:00 - 0/8 0/8 - - -
Ortszeit Bedeckungsgrad in Achtel und Wolkenuntergrenze
Di, 04.10. 0:00 8(<30m)
Mo, 03.10. 23:40 8
Mo, 03.10. 23:30 5(<30m)
Mo, 03.10. 23:20 5(<30m)
Mo, 03.10. 23:10 1
Mo, 03.10. 23:00 2(8400m)
Mo, 03.10. 22:50 2(8400m)
Mo, 03.10. 22:30 3(8700m)
Mo, 03.10. 22:00 3(1500m) 6(8700m)
Mo, 03.10. 21:30 6(1500m) 6(9000m)
Mo, 03.10. 21:00 7(1500m) 7(9000m)
Ortszeit Luftdruck NN (hPa) Tendenz (hPa in 3 Std.)
Mo, 03.10. 20:00 1026 - 0,2
Mo, 03.10. 14:00 1027 - 0,3
Mo, 03.10. 8:00 1027 + 1,0
Mo, 03.10. 2:00 1024 + 1,5
So, 02.10. 20:00 1020 + 1,5
So, 02.10. 14:00 1018 - 0,3
So, 02.10. 8:00 1019 + 0,2
So, 02.10. 2:00 1018 + 2,3
Ortszeit Luftdruck NN (hPa) Tendenz (hPa in 3 Std.)
Di, 04.10. 0:00 1027 - 0,2
Mo, 03.10. 23:40 1027 keine Meldung
Mo, 03.10. 23:30 1027 - 0,1
Mo, 03.10. 23:20 1027 keine Meldung
Mo, 03.10. 23:10 1027 keine Meldung
Mo, 03.10. 23:00 1027 0,0
Mo, 03.10. 22:50 1027 keine Meldung
Mo, 03.10. 22:30 1027 + 0,1
Mo, 03.10. 22:00 1027 + 0,1
Mo, 03.10. 21:30 1027 0,0
Mo, 03.10. 21:00 1026 - 0,1
Ortszeit Schneehöhe (cm)
Mo, 03.10. 20:00 0
Mo, 03.10. 14:00 0
Mo, 03.10. 8:00 0
Mo, 03.10. 2:00 0
So, 02.10. 20:00 0
So, 02.10. 14:00 0
So, 02.10. 8:00 0
So, 02.10. 2:00 0
Ortszeit Schneehöhe (cm)
Di, 04.10. 0:00 0
Mo, 03.10. 23:40 0
Mo, 03.10. 23:30 0
Mo, 03.10. 23:20 0
Mo, 03.10. 23:10 0
Mo, 03.10. 23:00 0
Mo, 03.10. 22:50 0
Mo, 03.10. 22:30 0
Mo, 03.10. 22:00 0
Mo, 03.10. 21:30 0
Mo, 03.10. 21:00 0
Link zu dieser Seite / Seite empfehlen

Das Wetter in ...